Location: �terpigny
(49.8910°N, 2.9249°E)
Time: 00:42:53
(UTC+00:00)

First-Move - Visible Passes

Search period start: 28 June 2022 00:00
Search period end: 08 July 2022 00:00
Orbit: 571 x 660 km, 97.6° (Epoch: 27 June)

Date Brightness Start Highest point End Pass type
(mag) Time Alt. Az. Time Alt. Az. Time Alt. Az.
30 Jun ? 02:30:23 10° ENE 02:31:56 12° E 02:33:29 10° ESE visible
01 Jul ? 02:45:15 10° NE 02:48:06 16° E 02:50:57 10° SE visible
02 Jul ? 03:00:39 10° NE 03:04:12 23° E 03:07:47 10° SE visible
06 Jul ? 02:29:50 10° ENE 02:31:33 12° E 02:33:15 10° ESE visible
07 Jul ? 02:44:44 10° NE 02:47:40 17° E 02:50:36 10° SE visible
